Location: Wildcat Hills Observatory
(41.6350°N, 103.6812°W)
Time: 17:15:35
(UTC-07:00)

Daily predictions for brighter satellites

Satellite Brightness Start Highest point End
(mag) Time Altitude Azimuth Time Altitude Azimuth Time Altitude Azimuth
BREEZE-M DEB (TANK) 4.5 17:43:05 10° WSW 17:47:43 69° NNW 18:08:16 10° ENE
Cosmos 1818 3.6 18:00:13 10° SSW 18:05:36 70° ESE 18:11:03 10° NE
Cosmos 407 Rocket 3.5 18:01:30 10° SSW 18:06:44 77° ESE 18:12:04 10° NNE
Cosmos 2360 Rocket 2.6 18:03:47 10° NNW 18:09:09 42° ENE 18:14:30 10° SE
Cosmos 2219 Rocket 3.9 18:07:27 10° NNE 18:10:11 14° NE 18:12:54 10° ENE
Cosmos 2219 4.5 18:07:20 10° SE 18:11:18 20° E 18:15:16 10° NE
Cosmos 676 Rocket 4.1 18:06:19 10° S 18:11:23 58° ESE 18:16:31 10° NNE
DNEPR-1 R/B 4.0 18:11:39 10° NW 18:15:52 65° WSW 18:20:05 10° SSE
Cosmos 1461 3.5 18:16:31 10° NW 18:20:29 60° WSW 18:24:33 10° SSE
Meteor 1-11 Rocket 4.2 18:16:00 10° SSE 18:21:21 40° E 18:26:49 10° NNE
BREEZE-M DEB (TANK) 4.1 18:17:53 10° SSW 18:21:50 23° SSE 18:23:46 12° E
Nadezhda 1 Rocket 4.3 18:16:48 10° NNW 18:22:52 72° W 18:28:53 10° S
Cosmos 1602 4.1 18:20:58 10° SSE 18:24:36 41° E 18:28:18 10° NNE
DELTA 2 R/B (1) 4.0 18:20:20 10° W 18:25:51 59° SSW 18:31:21 10° ESE
Cosmos 1140 Rocket 3.7 18:21:20 10° S 18:26:12 47° ESE 18:31:09 10° NNE
Resurs 01 Rocket 2.4 18:23:31 10° SE 18:27:20 29° ENE 18:31:09 10° N
Cosmos 1300 Rocket 3.8 18:23:44 10° SSE 18:27:56 45° E 18:32:09 10° NNE
Abrixas rocket 4.2 18:26:14 10° S 18:28:20 16° SE 18:29:39 13° ESE
BREEZE-M DEB (TANK) 3.8 18:27:13 10° NW 18:29:58 38° NNE 18:35:01 13° E
COSMO-SKYMED 1 3.7 18:28:30 10° N 18:32:42 48° WNW 18:36:52 10° SSW
Cosmos 614 Rocket 4.3 18:29:13 10° S 18:33:57 41° ESE 18:38:41 10° NE
ALOS 2.5 18:31:42 10° SE 18:36:11 49° ENE 18:40:42 10° N
Cosmos 2292 Rocket 4.4 18:32:22 10° S 18:37:31 90° WSW 18:44:33 10° N
FREGAT/IRIS 2.5 18:34:48 10° SSE 18:37:52 78° ENE 18:40:58 10° N
Cosmos 1833 4.2 18:32:24 10° SSW 18:38:06 77° ESE 18:43:46 10° NNE
Cosmos 1340 2.6 18:37:41 10° N 18:41:30 87° E 18:45:16 10° S
Spot 2 Rocket 3.8 18:37:30 10° SE 18:42:15 44° ENE 18:47:03 10° N
Helios 1A 4.2 18:40:55 18° E 18:42:32 22° ENE 18:45:46 10° NNE
Cosmos 2181 Rocket 4.0 18:36:51 10° N 18:43:06 73° E 18:49:26 10° SSE
Cosmos 2333 Rocket 3.6 18:40:12 10° N 18:44:21 20° NE 18:46:14 17° ENE
Resurs 1-3 4.1 18:40:58 10° SE 18:45:00 37° ENE 18:49:03 10° N
Cosmos 2208 Rocket 4.5 18:39:54 10° N 18:45:04 42° ENE 18:50:10 10° SE
SL-16 R/B 3.7 18:40:41 10° NW 18:45:55 39° WSW 18:51:08 10° S
USA 229 DEB 4.3 18:43:02 10° NNW 18:49:44 41° NE 18:54:32 19° ESE
USA 229 4.3 18:43:08 10° NNW 18:49:49 41° NE 18:54:36 19° ESE
Cosmos 1850 Rocket 4.1 18:48:30 10° S 18:53:38 53° ESE 18:58:49 10° NNE
NOSS 8 (E) 4.4 18:50:14 10° SSW 18:53:39 72° ESE 18:56:29 16° NE
Helios 1B rocket 3.4 18:51:07 10° NE 18:54:36 25° E 18:58:02 10° SSE
Tiangong 2 3.4 18:53:55 10° WSW 18:56:10 19° SSW 18:58:24 10° SSE
HJ-1C 3.2 18:52:52 10° SSE 18:56:13 79° ENE 18:59:36 10° N
Cosmos 1709 Rocket 4.2 18:51:45 10° SSW 18:57:57 73° W 19:04:08 10° N
Cosmos 2074 Rocket 4.1 18:52:08 10° SSE 18:58:05 49° E 19:04:07 10° NNE
Okean 2 4.3 18:54:36 10° NNE 18:58:11 27° ENE 18:58:13 27° ENE
Envisat 4.2 18:58:41 21° ENE 18:58:48 21° ENE 19:02:35 10° NNE
SJ-6B 3.4 18:55:33 10° S 18:59:31 59° W 19:03:25 10° NNW
Cosmos 2184 Rocket 4.1 18:55:04 10° SSE 19:01:08 50° E 19:07:08 10° NNE
Cosmos 1954 Rocket 4.5 18:56:03 10° SSW 19:01:11 63° WNW 19:06:24 10° NNE
Genesis I 3.3 18:57:36 10° NNW 19:01:29 56° NE 19:03:08 31° ESE
FengYun 1-2 T 4.1 18:56:28 10° SSE 19:01:57 83° ENE 19:07:29 10° NNW
Cosmos 2322 Rocket 4.3 18:57:27 10° NW 19:02:08 28° WSW 19:06:48 10° SSW
Okean 1 Rocket 3.0 18:58:21 10° S 19:02:50 84° E 19:07:20 10° N
SAR-Lupe-4 3.9 19:04:46 38° ESE 19:05:24 42° ENE 19:08:49 10° N
NOSS 8 (H) 4.3 19:04:25 10° SSW 19:07:46 72° ESE 19:09:05 35° NE
Meteor 1-5 Rocket 4.4 19:02:47 10° S 19:08:33 53° E 19:14:16 10° NNE
FENGYUN 3A 3.7 19:03:36 10° SSE 19:09:00 84° WSW 19:14:29 10° NNW
Meteor 1-19 Rocket 4.5 19:05:15 10° NNW 19:10:55 73° W 19:16:40 10° S
BREEZE-M DEB (TANK) 2.3 19:12:36 10° WNW 19:15:14 84° NNE 19:17:20 33° ESE
Intercosmos 24 4.3 19:11:40 10° S 19:15:48 65° E 19:21:44 10° NNE
Cosmos 1238 Rocket 4.0 19:14:07 10° NNW 19:16:50 32° W 19:19:32 10° SSW
Gbstr 26 Del rocket 2.7 19:14:37 10° WSW 19:18:24 74° NW 19:19:28 44° NE
Cosmos 2322 4.2 19:13:13 10° NNW 19:18:52 62° WSW 19:24:27 10° S
CZ-2D R/B 3.1 19:18:53 34° SSE 19:20:26 73° ENE 19:24:15 10° N
Nadezhda 3 Rocket 4.4 19:14:49 10° N 19:20:28 36° ENE 19:21:26 34° E
GPS 2-04 Rocket1 4.0 19:16:56 10° SW 19:20:39 28° SSE 19:21:01 28° SSE
Cosmos 405 Rocket 4.1 19:17:59 10° N 19:20:17 27° NNE 19:20:17 27° NNE
Cosmos 1025 Rocket 2.9 19:17:53 10° N 19:22:17 77° E 19:25:45 16° SSE
H-2A R/B 2.9 19:21:55 10° S 19:25:36 70° W 19:29:20 10° NNW
GEOS 3 Rocket 3.7 19:20:50 12° NE 19:25:49 82° NW 19:31:06 10° SW
Cosmos 1536 3.3 19:23:07 10° SSW 19:27:03 60° W 19:31:01 10° N
Okean 1-7 Rocket 3.9 19:24:31 10° NNW 19:29:02 67° W 19:33:28 10° S
Cosmos 2285 Rocket 4.0 19:22:53 10° NNW 19:29:18 66° ENE 19:32:47 28° SE
Cosmos 2154 Rocket 4.2 19:24:10 10° SSE 19:30:08 45° E 19:36:06 10° NNE
COSMOS 2428 2.6 19:28:39 10° NNW 19:34:22 87° WSW 19:37:44 26° SSE
Meteor 1-23 Rocket 4.3 19:28:46 10° NNW 19:34:36 79° W 19:40:19 10° S
Cosmos 2237 4.5 19:28:53 10° NNW 19:34:36 69° WSW 19:39:36 14° SSE
Meteor 2-13 Rocket 4.3 19:29:18 10° S 19:35:15 62° E 19:41:16 10° NNE
Cosmos 2333 4.1 19:29:55 10° NNW 19:35:41 84° ENE 19:38:23 33° SSE
Meteor 2-4 Rocket 4.1 19:31:15 10° NNW 19:36:42 60° W 19:42:00 10° S
Cosmos 2237 Rocket 2.9 19:33:01 10° N 19:37:45 35° NE 19:37:45 35° NE
NOSS 0 Rocket 3.8 19:45:58 10° NNW 19:52:04 62° ENE 19:52:27 61° E
Cosmos 2360 Rocket 4.1 19:48:12 10° NW 19:52:55 28° WSW 19:57:38 10° SSW
Cosmos 2219 3.7 19:49:14 10° SW 19:54:54 60° WNW 20:00:37 10° NNE
Cosmos 2219 Rocket 2.0 19:49:28 10° NNW 19:55:06 78° ENE 19:55:22 75° E
Resurs 01 Rocket 3.7 20:00:08 10° SSW 20:03:47 25° W 20:07:27 10° NW
SL-16 R/B 3.9 20:06:48 10° N 20:09:14 21° NNE 20:09:14 21° NNE
Cosmos 468 Rocket 4.5 20:15:22 10° NNW 20:19:39 57° NW 20:19:39 57° NW
Cosmos 2333 Rocket 2.6 20:23:28 10° NNW 20:28:17 60° WNW 20:28:17 60° WNW
Envisat 4.3 20:38:53 38° NW 20:38:53 38° NW 20:42:24 10° NNW
USA 229 DEB 4.5 20:34:01 10° NW 20:40:49 48° WSW 20:42:02 44° SW
USA 229 4.4 20:34:06 10° NW 20:40:55 49° WSW 20:42:06 45° SW
NOSS 3-1 (A) 4.2 20:46:12 10° NNW 20:52:26 63° NNW 20:52:26 63° NNW
ATLAS 2AS CENTAUR R/B 4.2 20:52:20 10° NNW 20:57:44 30° NNE 20:57:44 30° NNE
NOSS 3-1 (C) 4.5 21:05:43 10° NW 21:11:49 57° WNW 21:11:49 57° WNW
Cosmos 2237 Rocket 4.3 21:17:09 10° NW 21:19:36 23° WNW 21:19:36 23° WNW
